User: anonymous   Login
Location: Unspecified
(0.0000°N, 0.0000°E)
Time: 00:09:15
(UTC+00:00)
Language:

STARLINK-33869 - Orbit

View from above orbital plane
View from above orbital plane
View from above satellite
View from above satellite

Ground track
Ground track

The orbit is defined by the following mean orbital elements,

1 63790U          26145.57437535 +.00000000 +00000-0 +41650-3 0 00004
2 63790  43.0023 338.0653 0001519 265.2943  94.7735 15.27589514    06
Epoch (UTC): 25 May 2026 13:47:06
Eccentricity: 0.0001519
inclination: 43.0023°
perigee height: 482 km
apogee height: 484 km
right ascension of ascending node: 338.0653°
argument of perigee: 265.2943°
revolutions per day: 15.27589514
mean anomaly at epoch: 94.7735°

The dashed part of the orbit path shows where the satellite is in the earth's shadow,  

DLR